Home   Weather   Daly City   Past weeks

Flag for USA Past Weather in Daly City, California, USA — Yesterday and Last 2 Weeks

Now
58 °F

Passing clouds.


Feels Like: 53 °F
Forecast: 54 / 64 °F
Wind: 24 mph from West

Location: San Francisco International Airport

Current Time: Sep 30, 2016 at 8:19:53 PM

Latest Report: Sep 30, 2016 at 7:56 PM


Visibility: 10 mi

Pressure: 30.08 "Hg

Humidity: 75%

Dew Point: 50 °F

Location of Daly CityLocation

Past Weather in Daly City — Graph

°F

Daly City Temperature Yesterday

Maximum temperature yesterday: 62 °F (at 12:56 PM)
Minimum temperature yesterday: 54 °F (at 11:56 PM)
Average temperature yesterday: 58 °F

High & Low Weather Summary for the Past Weeks

 TemperatureHumidityPressure
High93 °F (Sep 25, 3:56 PM)93% (Sep 17, 1:56 AM)30.16 "Hg (Sep 17, 1:56 AM)
Low53 °F (Sep 23, 2:56 AM)16% (Sep 25, 5:56 PM)29.82 "Hg (Sep 27, 5:56 PM)
Average64 °F67%29.99 "Hg
* Reported Sep 15 6:56 PM — Sep 30 6:56 PM, Daly City, Weather by CustomWeather, © 2016

Note: Actual official high and low records may vary slightly from our data, if they occured in-between our weather recording intervals... More about our weather records

Advertising

Daly City Weather History for the Previous 24 Hours

Scroll right to see more
 ConditionsComfort  
Time TempWeatherWind HumidityBarometerVisibility
6:56 PM
Fri, Sep 30
59 °FPassing clouds.28 mph69%30.09 "Hg10 mi
5:56 PM61 °FPassing clouds.25 mph65%30.09 "Hg10 mi
4:56 PM62 °FPassing clouds.22 mph60%30.09 "Hg10 mi
3:56 PM63 °FPassing clouds.23 mph58%30.10 "Hg10 mi
2:56 PM64 °FPassing clouds.18 mph54%30.11 "Hg10 mi
1:56 PM64 °FPassing clouds.16 mph52%30.13 "Hg10 mi
12:56 PM64 °FPassing clouds.21 mph54%30.14 "Hg10 mi
11:56 AM63 °FPassing clouds.20 mph54%30.14 "Hg10 mi
10:56 AM63 °FPassing clouds.16 mph58%30.14 "Hg10 mi
9:56 AM60 °FPassing clouds.14 mph65%30.14 "Hg10 mi
8:56 AM58 °FPassing clouds.14 mph72%30.13 "Hg10 mi
7:56 AM56 °FPartly sunny.10 mph75%30.13 "Hg10 mi
7:03 AM55 °FOvercast.13 mph77%30.13 "Hg10 mi
6:56 AM55 °FMostly cloudy.13 mph77%30.12 "Hg10 mi
5:56 AM54 °FMostly cloudy.12 mph83%30.11 "Hg10 mi
4:56 AM54 °FMostly cloudy.12 mph86%30.11 "Hg10 mi
3:56 AM54 °FMostly cloudy.13 mph86%30.11 "Hg10 mi
2:56 AM54 °FMostly cloudy.12 mph86%30.11 "Hg10 mi
1:56 AM55 °FMostly cloudy.9 mph87%30.11 "Hg10 mi
12:56 AM54 °FMostly cloudy.10 mph86%30.10 "Hg10 mi
11:56 PM
Thu, Sep 29
54 °FMostly cloudy.13 mph86%30.11 "Hg10 mi
10:56 PM55 °FMostly cloudy.16 mph83%30.10 "Hg10 mi
9:56 PM55 °FMostly cloudy.20 mph87%30.09 "Hg10 mi
8:56 PM55 °FPartly cloudy.16 mph87%30.08 "Hg10 mi
Weather by CustomWeather, © 2016

See weather overviewHow to use our weather pages